User: anonymous   Login
Location: The Saddle
(36.8333°N, 80.3417°W)
Time: 09:23:00
(UTC-04:00)
Language:

AO-7 - Orbit

View from above orbital plane
View from above orbital plane
View from above satellite
View from above satellite

Ground track
Ground track

The orbit data is extracted from the following two-line orbital elements,

1  7530U 74089B   23086.22133778 -.00000022  00000-0  15305-3 0  9997
2  7530 101.9429  72.3608 0011971 219.3601 153.1933 12.53662608213145
Epoch (UTC): 27 March 2023 05:18:43
Eccentricity: 0.0011971
inclination: 101.9429°
perigee height: 1440 km
apogee height: 1458 km
right ascension of ascending node: 72.3608°
argument of perigee: 219.3601°
revolutions per day: 12.53662608
mean anomaly at epoch: 153.1933°
orbit number at epoch: 21314

The dashed part of the orbit path shows where the satellite is in the earth's shadow,  

DLR